CW5757 Weather Reports


time (UTC)temp
C
wind
direction
speed
KPH
gust
KPH
rain 1hr
cm
rain 24hr
cm
rain mn
cm
humidity
%
barometer
mb
20260504081748 7 204 0.0 0.0 0.00 0.00 0.00 75 1017.4
20260504081248 7 204 0.0 0.0 0.00 0.00 0.00 76 1017.4
20260504080748 7 204 0.0 0.0 0.00 0.00 0.00 76 1017.4
20260504070105 8 204 0.0 0.0 0.00 0.00 0.00 75 1017.6
20260504060116 9 204 0.0 0.0 0.00 0.00 0.00 71 1017.9
20260504050604 10 204 0.0 0.0 0.00 0.00 0.00 67 1017.8
20260504050106 11 204 0.0 0.0 0.00 0.00 0.00 67 1017.8
20260504045613 11 204 0.0 0.0 0.00 0.00 0.00 68 1017.8
20260504045120 11 204 0.0 0.0 0.00 0.00 0.00 67 1017.8
20260504044615 11 204 0.0 0.0 0.00 0.00 0.00 68 1017.8
20260504044122 11 204 0.0 0.0 0.00 0.00 0.00 67 1017.8
20260504043629 11 204 0.0 0.0 0.00 0.00 0.00 66 1017.9
20260504043104 11 204 0.0 0.0 0.00 0.00 0.00 66 1017.7
20260504042604 11 204 0.0 0.0 0.00 0.00 0.00 66 1017.8
20260504042104 11 204 0.0 0.0 0.00 0.00 0.00 66 1017.8
20260504041604 11 204 0.0 0.0 0.00 0.00 0.00 65 1017.8
20260504041108 11 204 0.0 0.0 0.00 0.00 0.00 65 1017.9
20260504040615 11 204 0.0 0.0 0.00 0.00 0.00 64 1017.8
20260504040122 12 204 0.0 0.0 0.00 0.00 0.00 63 1017.9
20260504035629 12 204 0.0 0.0 0.00 0.00 0.00 62 1017.9
20260504035104 12 204 0.0 0.0 0.00 0.00 0.00 61 1018.0
20260504034428 12 204 0.0 0.0 0.00 0.00 0.00 59 1018.0
20260504033928 12 204 0.0 0.0 0.00 0.00 0.00 60 1018.0
20260504033432 12 204 0.0 0.0 0.00 0.00 0.00 61 1018.0
20260504032939 12 204 0.0 0.0 0.00 0.00 0.00 62 1018.0
20260504032446 12 204 0.0 0.0 0.00 0.00 0.00 62 1018.0
20260504031953 12 204 0.0 0.0 0.00 0.00 0.00 61 1017.9
20260504031500 12 204 0.0 0.0 0.00 0.00 0.00 63 1017.8
20260504030955 12 204 0.0 0.0 0.00 0.00 0.00 63 1017.8
20260504030450 12 204 0.0 0.0 0.00 0.00 0.00 63 1017.7
20260504025957 13 204 0.0 0.0 0.00 0.00 0.00 62 1017.6
20260504025440 13 204 0.0 0.0 0.00 0.00 0.00 62 1017.7
20260504024928 13 204 0.0 0.0 0.00 0.00 0.00 63 1017.7
20260504024427 13 204 0.0 0.0 0.00 0.00 0.00 61 1017.7
20260504023928 13 204 0.0 0.0 0.00 0.00 0.00 61 1017.5
20260504023427 13 204 0.0 0.0 0.00 0.00 0.00 60 1017.5
20260504022934 13 204 0.0 0.0 0.00 0.00 0.00 59 1017.4
20260504022441 14 204 0.0 0.0 0.00 0.00 0.00 59 1017.4
20260504021948 14 204 0.0 0.0 0.00 0.00 0.00 60 1017.3
20260504021455 14 204 0.0 0.0 0.00 0.00 0.00 60 1017.2
20260504020950 15 204 0.0 0.0 0.00 0.00 0.00 58 1017.1
20260504020445 15 204 0.0 0.0 0.00 0.00 0.00 55 1017.0
20260504015952 15 204 0.0 0.0 0.00 0.00 0.00 55 1017.0
20260504015428 15 204 0.0 0.0 0.00 0.00 0.00 55 1016.9
20260504014927 15 204 0.0 0.0 0.00 0.00 0.00 55 1016.9
20260504014427 15 204 0.0 0.0 0.00 0.00 0.00 54 1016.9
20260504013928 15 204 0.0 0.0 0.00 0.00 0.00 54 1016.9
20260504013429 16 204 0.0 0.0 0.00 0.00 0.00 54 1016.9
20260504012936 16 204 0.0 0.0 0.00 0.00 0.00 54 1016.7
20260504012443 16 204 0.0 0.0 0.00 0.00 0.00 50 1016.7
20260504011950 16 204 0.0 0.0 0.00 0.00 0.00 50 1016.7
20260504011445 16 204 0.0 0.0 0.00 0.00 0.00 52 1016.6
20260504010952 16 204 0.0 0.0 0.00 0.00 0.00 51 1016.6
20260504010428 17 204 0.0 0.0 0.00 0.00 0.00 50 1016.6
20260504005928 17 204 0.0 0.0 0.00 0.00 0.00 49 1016.5
20260504005427 17 204 0.0 0.0 0.00 0.00 0.00 48 1016.5
20260504004927 17 204 0.0 0.0 0.00 0.00 0.00 46 1016.5
20260504004428 17 204 0.0 0.0 0.00 0.00 0.00 44 1016.4
20260504003928 17 204 0.0 0.0 0.00 0.00 0.00 40 1016.4
20260504003431 18 204 0.0 0.0 0.00 0.00 0.00 40 1016.3
20260504002938 18 204 0.0 0.0 0.00 0.00 0.00 40 1016.3
20260504002445 18 204 0.0 0.0 0.00 0.00 0.00 41 1016.2
20260504001939 18 204 0.0 0.0 0.00 0.00 0.00 40 1016.2
20260504001428 18 204 0.0 0.0 0.00 0.00 0.00 39 1016.2
20260504000927 18 204 0.0 0.0 0.00 0.00 0.00 39 1016.1
20260504000427 18 204 0.0 0.0 0.00 0.00 0.00 39 1016.1
20260503235928 19 204 0.0 0.0 0.00 0.00 0.00 37 1016.0
20260503235428 19 204 0.0 0.0 0.00 0.00 0.00 37 1016.1
20260503234928 19 204 0.0 0.0 0.00 0.00 0.00 37 1016.0
20260503234428 19 204 0.0 0.0 0.00 0.00 0.00 37 1016.0
20260503233928 19 204 0.0 0.0 0.00 0.00 0.00 36 1016.0
20260503233427 20 204 0.0 0.0 0.00 0.00 0.00 36 1016.0
20260503232927 20 204 0.0 0.0 0.00 0.00 0.00 35 1016.1
20260503232427 20 204 0.0 0.0 0.00 0.00 0.00 35 1016.1
20260503231927 20 204 0.0 0.0 0.00 0.00 0.00 34 1016.1
20260503231433 20 204 0.0 0.0 0.00 0.00 0.00 34 1016.1
20260503230940 20 204 0.0 0.0 0.00 0.00 0.00 34 1016.1
20260503230427 20 204 0.0 0.0 0.00 0.00 0.00 33 1016.2
20260503225928 20 204 0.0 0.0 0.00 0.00 0.00 33 1016.2
20260503225431 20 204 0.0 0.0 0.00 0.00 0.00 33 1016.1
20260503224938 20 204 0.0 0.0 0.00 0.00 0.00 35 1016.2
20260503224444 20 204 0.0 0.0 0.00 0.00 0.00 33 1016.3
20260503223952 20 204 0.0 0.0 0.00 0.00 0.00 33 1016.3
20260503223427 20 204 0.0 0.0 0.00 0.00 0.00 32 1016.2
20260503222928 20 204 0.0 0.0 0.00 0.00 0.00 33 1016.3
20260503222428 21 204 0.0 0.0 0.00 0.00 0.00 35 1016.3
20260503221927 21 204 0.0 0.0 0.00 0.00 0.00 35 1016.2
20260503221427 21 204 0.0 0.0 0.00 0.00 0.00 35 1016.2
20260503220928 21 204 0.0 0.0 0.00 0.00 0.00 34 1016.3
20260503220428 21 204 0.0 0.0 0.00 0.00 0.00 33 1016.3
20260503215927 21 204 0.0 0.0 0.00 0.00 0.00 31 1016.3
20260503215428 21 204 0.0 0.0 0.00 0.00 0.00 32 1016.3
20260503214927 21 204 0.0 0.0 0.00 0.00 0.00 29 1016.3
20260503214433 21 204 0.0 0.0 0.00 0.00 0.00 30 1016.4
20260503213940 21 204 0.0 0.0 0.00 0.00 0.00 31 1016.4
20260503213427 21 204 0.0 0.0 0.00 0.00 0.00 27 1016.5
20260503212928 21 204 0.0 0.0 0.00 0.00 0.00 30 1016.5
20260503212427 21 204 0.0 0.0 0.00 0.00 0.00 29 1016.5
20260503211927 21 204 0.0 0.0 0.00 0.00 0.00 30 1016.5
20260503211433 21 204 0.0 0.0 0.00 0.00 0.00 29 1016.5
20260503210939 22 204 0.0 0.0 0.00 0.00 0.00 30 1016.6
20260503210427 22 204 0.0 0.0 0.00 0.00 0.00 32 1016.5
20260503205928 22 204 0.0 0.0 0.00 0.00 0.00 30 1016.6
20260503205428 22 204 0.0 0.0 0.00 0.00 0.00 31 1016.7
20260503204927 21 204 0.0 0.0 0.00 0.00 0.00 31 1016.7
20260503204427 21 204 0.0 0.0 0.00 0.00 0.00 31 1016.7
20260503203932 22 204 0.0 0.0 0.00 0.00 0.00 33 1016.7
20260503203430 22 204 0.0 0.0 0.00 0.00 0.00 33 1016.8
20260503202929 22 204 0.0 0.0 0.00 0.00 0.00 35 1016.9
20260503202436 22 204 0.0 0.0 0.00 0.00 0.00 31 1017.0
20260503201943 22 204 0.0 0.0 0.00 0.00 0.00 29 1017.0
20260503201450 22 204 0.0 0.0 0.00 0.00 0.00 31 1017.1
20260503200945 22 204 0.0 0.0 0.00 0.00 0.00 30 1017.1
20260503200452 22 204 0.0 0.0 0.00 0.00 0.00 29 1017.3
20260503195928 22 204 0.0 0.0 0.00 0.00 0.00 29 1017.4
20260503195427 22 204 0.0 0.0 0.00 0.00 0.00 29 1017.5
20260503194930 22 204 0.0 0.0 0.00 0.00 0.00 27 1017.7
20260503194437 22 204 0.0 0.0 0.00 0.00 0.00 29 1017.9
20260503193944 23 204 0.0 0.0 0.00 0.00 0.00 27 1017.9
20260503193439 23 204 0.0 0.0 0.00 0.00 0.00 27 1018.2
20260503192927 23 204 0.0 0.0 0.00 0.00 0.00 25 1018.2
20260503192427 24 204 0.0 0.0 0.00 0.00 0.00 26 1018.2
20260503191927 24 204 0.0 0.0 0.00 0.00 0.00 26 1018.5
20260503191433 24 204 0.0 0.0 0.00 0.00 0.00 25 1018.5
20260503190939 24 204 0.0 0.0 0.00 0.00 0.00 29 1018.5
20260503190427 24 204 0.0 0.0 0.00 0.00 0.00 27 1018.5
20260503185927 23 204 0.0 0.0 0.00 0.00 0.00 26 1018.5
20260503185427 23 204 0.0 0.0 0.00 0.00 0.00 30 1018.6
20260503184927 22 204 0.0 0.0 0.00 0.00 0.00 30 1018.7
20260503184427 22 204 0.0 0.0 0.00 0.00 0.00 30 1018.7
20260503183927 22 204 0.0 0.0 0.00 0.00 0.00 29 1018.7
20260503183427 22 204 0.0 0.0 0.00 0.00 0.00 28 1018.9
20260503182927 22 204 0.0 0.0 0.00 0.00 0.00 28 1019.0
20260503182427 22 204 0.0 0.0 0.00 0.00 0.00 32 1019.0
20260503181927 22 204 0.0 0.0 0.00 0.00 0.00 31 1019.0
20260503181427 22 204 0.0 0.0 0.00 0.00 0.00 29 1019.0
20260503180927 22 204 0.0 0.0 0.00 0.00 0.00 30 1019.0
20260503180427 21 204 0.0 0.0 0.00 0.00 0.00 35 1019.1
20260503175927 21 204 0.0 0.0 0.00 0.00 0.00 30 1019.1
20260503175427 21 204 0.0 0.0 0.00 0.00 0.00 34 1019.2
20260503174927 20 204 0.0 0.0 0.00 0.00 0.00 34 1019.2
20260503174427 21 204 0.0 0.0 0.00 0.00 0.00 32 1019.2
20260503173933 21 204 0.0 0.0 0.00 0.00 0.00 33 1019.2
20260503173439 21 204 0.0 0.0 0.00 0.00 0.00 37 1019.3
20260503172927 20 204 0.0 0.0 0.00 0.00 0.00 37 1019.4
20260503172427 20 204 0.0 0.0 0.00 0.00 0.00 36 1019.4
20260503171927 20 204 0.0 0.0 0.00 0.00 0.00 38 1019.5
20260503171427 19 204 0.0 0.0 0.00 0.00 0.00 41 1019.5
20260503170927 19 204 0.0 0.0 0.00 0.00 0.00 38 1019.5
20260503170427 20 204 0.0 0.0 0.00 0.00 0.00 36 1019.5
20260503150927 15 204 0.0 0.0 0.00 0.00 0.00 57 1020.5
20260503150427 15 204 0.0 0.0 0.00 0.00 0.00 58 1020.4
20260503130954 7 204 0.0 0.0 0.00 0.00 0.00 85 1020.1
20260503130454 7 204 0.0 0.0 0.00 0.00 0.00 85 1020.1
20260503110525 4 204 0.0 0.0 0.00 0.00 0.00 82 1019.4
20260503090506 6 204 0.0 0.0 0.00 0.00 0.00 80 1018.1